User: anonymous   Login
Location: Knowlton
(51.2333°N, 1.2667°E)
Time: 03:02:50
(UTC+00:00)
Language:

Cosmos 1812 Rocket - Orbit

View from above orbital plane
View from above orbital plane
View from above satellite
View from above satellite

Ground track
Ground track

The orbit data is extracted from the following two-line orbital elements,

1 17296U 87003B   21171.25774939  .00000079  00000-0  65993-5 0  9994
2 17296  82.5303  95.5296 0020565  75.1749 285.1742 14.83337175839051
Epoch (UTC): 20 June 2021 06:11:09
Eccentricity: 0.0020565
inclination: 82.5303°
perigee height: 604 km
apogee height: 633 km
right ascension of ascending node: 95.5296°
argument of perigee: 75.1749°
revolutions per day: 14.83337175
mean anomaly at epoch: 285.1742°
orbit number at epoch: 83905

The dashed part of the orbit path shows where the satellite is in the earth's shadow,  

DLR